Content
SEND FEEDBACK

Daily
Averages
Monthly
Summary
Canada

CORNER BROOK, NEWFOUNDLAND


Home > North America > Canada > Newfoundland
Elevation: 16 feet     Latitude: 48 57N     Longitude: 057 57W

WEATHER
 
SELECT A DAY
Number of Records: 184,945;   Date Range: 1/1/95 - 11/24/14
 
SHARE

PRINT THIS DATA

[ ← Previous Day ]
WEATHER ALMANAC - FEBRUARY 28, 2013
[ Next Day → ]
[ °C ]   °F
Weather ElementAverageHighLow
Temperature20.5 °F33.8 °F (12:30 pm)1.4 °F (7:30 am)
Dewpoint13.8 °F24.8 °F (11:30 pm)-2.2 °F (7:30 am)
Humidity74.9 %92 % (3:30 am)44 % (2:30 pm)
Barometer30.06 in30.11 in (8:30 am)29.94 in (11:30 pm)
Wind Speed8.6 mph18.4 mph (3:30 pm)
Wind Gust25.3 mph (11:30 pm)
Weather ElementAverage
Visibility15 mi
Wind DirectionENE (70 °)

Weather ElementTotal
Precipitation---
Heating Degree Days47.4 (Base 65)
Averaged from 26 records on February 28, 2013
WEATHER CONDITIONS BREAKOUT
WIND DIRECTION BREAKOUT
WEATHER BY HOUR - FEBRUARY 28, 2013
[ °C ]   °F
Local TimeTemperatureDewpointHumidityBarometerVisibilityWind DirectionWind SpeedGust SpeedPrecipitationEventsConditions
1:30 AM15.8 °F12.2 °F86 %30.07 in15.0 miSW (220°)9.2 mphClear
2:30 AM15.0 °F12.0 °F81 %30.06 in15.0 miSW (220°)2.3 mph
2:30 AM15.8 °F12.2 °F86 %30.06 in15.0 miCalmClear
3:30 AM6.8 °F5.0 °F92 %30.07 in15.0 miNE (40°)3.5 mphClear
4:30 AM5.0 °F1.4 °F85 %30.08 in15.0 miNE (40°)2.3 mphClear
5:30 AM5.0 °F1.4 °F85 %30.09 in15.0 miNNW (330°)3.5 mphClear
6:30 AM3.2 °F-0.4 °F85 %30.09 in15.0 miNNE (30°)3.5 mphClear
7:30 AM1.4 °F-2.2 °F85 %30.10 in15.0 miEast (80°)3.5 mphClear
8:30 AM6.0 °F2.0 °F75 %30.11 in15.0 miCalm
8:30 AM5.0 °F1.4 °F85 %30.10 in15.0 miCalmClear
9:30 AM14.0 °F8.6 °F79 %30.10 in15.0 miCalmClear
10:30 AM21.2 °F12.2 °F68 %30.10 in15.0 miSSW (200°)3.5 mphClear
11:30 AM28.4 °F14.0 °F55 %30.09 in15.0 miNE (50°)8.1 mphClear
12:30 PM33.8 °F17.6 °F52 %30.07 in15.0 miNE (50°)13.8 mph19.6 mphClear
2:30 PM33.0 °F19.0 °F44 %30.06 in15.0 miNE (40°)16.1 mphScattered Clouds
2:30 PM33.8 °F19.4 °F56 %30.06 in15.0 miNE (50°)16.1 mphPartly Cloudy
3:30 PM32.0 °F21.2 °F64 %30.05 in15.0 miNE (50°)18.4 mphPartly Cloudy
4:30 PM30.2 °F21.2 °F69 %30.05 in15.0 miNE (40°)15.0 mphPartly Cloudy
5:30 PM28.4 °F21.2 °F74 %30.05 in15.0 miNNE (30°)12.7 mph21.9 mphPartly Cloudy
6:30 PM28.4 °F21.2 °F74 %30.05 in15.0 miNE (40°)9.2 mphMostly Cloudy
7:30 PM28.4 °F21.2 °F74 %30.03 in15.0 miNE (40°)10.4 mphMostly Cloudy
8:30 PM29.0 °F23.0 °F68 %30.02 in15.0 miNE (40°)13.8 mphOvercast
8:30 PM28.4 °F23.0 °F80 %30.02 in15.0 miNE (50°)13.8 mph19.6 mphOvercast
9:30 PM28.4 °F23.0 °F80 %29.99 in15.0 miNNE (30°)11.5 mphOvercast
10:30 PM28.4 °F23.0 °F80 %29.96 in15.0 miNE (40°)17.3 mph24.2 mphOvercast
11:30 PM28.4 °F24.8 °F86 %29.94 in15.0 miNE (40°)15.0 mph25.3 mphOvercast
Hourly data recorded from CYDF, located miles away from Corner Brook, Newfoundland







STORIES FROM OUR PARTNERS